Theta_e
340 341 343 343 344 344 341 340 339 339 338 337 334 329 329 330 331 331 327 327 329 333 336 335 335 333 330 323 316 317 318 319 322 323 325 327 327 327 325 325 325 326 326 327 328 328 328 328 328 328 330 329 327 331 336 335 333 334 334 336 339 337
340 341 343 343 344 345 341 340 340 340 338 335 331 330 333 335 336 333 329 332 336 336 336 337 337 336 337 332 319 314 316 316 318 318 320 324 326 327 326 324 324 323 323 323 323 325 327 326 325 325 326 327 329 334 335 335 334 334 336 339 339 335
340 341 342 343 344 345 342 341 342 341 339 335 332 334 338 338 338 336 335 337 337 336 336 338 340 338 337 336 329 324 324 323 322 319 316 318 320 324 326 324 323 322 320 318 319 325 330 331 329 327 327 330 334 335 335 336 335 336 339 340 338 335
341 340 342 343 344 344 342 342 343 342 341 338 336 338 339 338 337 337 338 338 337 339 340 340 341 338 335 336 335 332 332 331 330 326 322 321 319 319 322 322 322 322 321 323 326 330 332 334 333 332 333 334 336 336 335 336 335 338 340 338 337 336
340 340 341 342 342 343 342 342 342 341 341 340 338 338 339 338 338 339 339 339 340 341 340 342 342 339 339 340 339 337 336 336 336 334 333 334 330 325 324 325 326 328 329 331 332 331 330 332 332 333 335 335 336 337 336 336 336 339 339 337 335 335
340 340 341 341 341 342 342 342 342 341 340 338 337 337 338 338 339 339 339 340 341 341 341 341 341 341 341 340 340 340 339 340 339 338 338 338 336 334 333 332 331 332 333 333 332 331 331 332 334 335 336 336 337 337 337 336 337 338 337 334 334 334
340 341 341 340 341 342 341 341 341 340 339 338 337 337 338 337 338 340 340 340 340 341 342 342 342 342 341 341 341 341 341 341 340 340 340 339 337 337 336 334 334 333 333 333 334 334 335 336 337 338 337 337 337 338 337 336 337 338 336 332 332 333
340 340 342 340 340 341 340 340 341 339 339 338 337 338 338 337 338 341 341 341 342 342 342 343 343 342 342 342 341 341 342 342 341 340 340 339 339 338 338 337 336 336 336 335 336 336 336 337 338 338 338 337 337 337 336 335 337 337 336 332 330 330
340 340 341 341 340 340 340 341 341 339 339 338 337 338 338 338 339 341 342 342 343 344 344 343 343 343 342 342 342 342 342 342 341 340 340 340 339 339 339 338 336 337 336 336 336 336 336 337 337 337 337 337 336 335 335 334 335 335 335 332 329 328
339 341 341 341 340 340 340 341 341 339 339 338 338 339 338 338 339 341 343 344 344 344 344 343 343 342 342 343 343 342 342 342 341 341 340 340 340 340 339 338 337 337 336 336 336 336 336 336 336 336 335 335 334 334 334 333 332 333 333 332 329 328
339 340 341 340 340 340 341 341 340 339 338 338 338 339 339 337 339 341 344 345 344 344 344 344 344 343 343 343 343 342 343 342 342 341 340 340 340 340 339 339 338 338 337 337 336 336 336 335 335 334 334 333 333 332 332 332 332 331 331 331 329 328
339 340 340 340 340 341 341 340 339 339 338 338 339 339 339 338 338 341 344 345 345 345 344 345 345 343 343 342 342 343 342 342 341 341 341 341 341 340 339 338 338 337 337 336 336 335 335 334 334 333 332 330 330 330 330 330 330 330 330 329 328 328
340 341 340 339 340 341 340 339 339 338 337 338 339 339 340 339 339 342 345 345 345 345 345 345 344 342 342 342 342 342 341 341 341 341 341 341 340 340 339 338 337 336 336 335 335 335 334 333 332 331 330 329 328 328 328 328 328 328 327 327 326 326
340 341 340 339 340 340 339 339 339 338 338 339 339 340 340 339 340 343 344 344 344 344 344 344 342 341 342 342 341 341 341 340 340 341 340 340 339 337 337 336 335 335 335 334 334 334 333 331 331 330 328 327 327 326 325 325 325 325 324 324 323 323
340 340 340 340 340 340 339 340 338 337 338 339 340 340 340 340 341 343 342 343 345 344 344 343 341 341 342 341 341 340 341 340 340 340 339 338 336 335 335 335 335 335 334 333 333 333 331 331 329 328 326 325 325 324 323 323 322 322 321 321 320 319
340 340 340 340 340 340 339 339 338 337 338 339 340 340 341 340 341 342 342 342 343 344 344 342 340 340 341 341 340 339 339 338 338 337 337 336 334 334 334 334 335 334 334 333 332 331 330 329 328 325 324 323 322 322 321 321 320 319 318 317 316 315
341 341 340 340 340 340 339 338 338 338 339 340 339 340 340 340 340 341 341 341 341 341 342 342 340 340 340 340 338 337 337 336 336 336 336 335 333 332 332 334 333 332 333 333 331 331 329 327 325 323 322 320 320 319 319 318 317 316 316 315 314 313
341 341 340 340 340 340 339 338 338 339 339 339 339 340 339 339 341 341 341 340 339 340 341 341 340 340 340 338 337 336 336 336 336 335 335 334 333 332 332 333 332 328 330 332 330 330 328 325 323 320 319 318 317 317 316 315 315 314 313 313 312 312
340 340 340 340 340 341 340 339 339 339 339 338 338 339 339 340 341 341 341 341 340 340 340 341 340 339 338 337 336 336 336 335 335 335 335 334 332 331 331 331 330 326 327 332 331 329 326 322 320 318 316 315 315 314 314 313 313 313 312 312 311 311
340 340 341 340 340 341 339 339 339 339 338 338 338 339 339 340 340 340 341 340 340 340 339 339 339 339 337 336 336 336 336 335 334 334 334 335 333 332 331 329 329 327 327 330 331 327 323 320 318 316 315 313 313 312 312 312 312 312 311 311 310 310
340 341 341 340 340 340 338 338 339 338 338 338 338 338 339 340 340 339 340 340 339 339 338 338 338 337 337 336 335 335 335 334 333 333 333 333 331 330 328 326 326 326 327 330 329 326 322 320 319 318 317 315 312 311 311 311 311 311 310 310 309 309
340 340 341 340 340 339 338 338 338 338 338 338 338 338 338 339 339 339 339 339 338 337 337 337 337 336 336 335 335 335 334 333 331 331 331 330 328 327 326 324 324 323 325 329 330 327 324 323 323 322 322 320 315 311 310 310 310 310 309 309 309 309
340 340 340 339 340 339 338 338 337 337 337 337 337 336 337 338 338 338 337 336 337 336 336 336 335 335 334 334 334 333 332 331 330 329 328 328 327 327 325 325 324 322 321 324 327 327 326 327 328 326 325 324 320 315 313 312 310 310 309 309 309 310
340 340 340 339 339 338 337 337 337 337 337 336 335 336 336 336 336 336 335 335 335 335 334 334 334 333 333 332 332 330 330 329 327 327 326 327 326 326 324 322 323 322 320 320 322 324 325 327 328 326 326 327 325 322 321 317 312 310 309 309 309 309
339 339 339 338 338 338 337 338 337 337 336 335 335 335 335 335 335 335 334 334 333 333 333 332 332 331 331 330 329 328 327 326 324 324 324 324 324 323 321 320 321 322 321 319 318 319 320 321 322 321 322 325 326 324 322 317 313 311 309 308 307 307
339 338 338 337 337 338 337 337 337 336 335 335 335 335 335 335 334 334 333 333 332 331 331 329 329 329 328 327 327 326 324 322 322 322 323 322 321 320 319 319 319 320 318 316 315 314 314 315 315 315 315 317 321 323 319 315 314 312 309 308 307 306
338 338 337 335 336 338 337 337 336 335 335 335 335 335 335 334 333 333 332 331 330 329 328 327 326 325 325 325 323 322 320 319 318 320 320 321 320 319 319 319 320 320 319 316 314 312 312 311 312 312 312 311 314 317 318 316 316 314 312 311 309 307
337 337 337 335 336 337 337 337 336 335 335 335 335 334 333 333 332 331 330 329 328 327 326 325 324 323 322 321 320 318 318 317 317 318 319 319 318 318 317 317 318 319 319 319 317 314 312 310 310 311 312 311 309 311 313 314 314 314 314 314 311 309
336 336 336 336 336 336 336 336 336 335 335 335 335 333 332 332 331 330 329 328 327 326 324 324 323 322 321 319 318 318 318 318 317 317 317 317 317 316 316 316 316 317 317 317 316 315 314 313 313 312 313 312 310 309 310 311 311 311 312 313 310 309
336 336 336 336 336 336 336 336 336 336 335 335 334 332 331 331 330 328 328 327 326 326 325 323 322 320 319 318 318 318 318 318 317 315 315 314 313 313 313 313 314 314 314 314 314 314 315 314 314 314 313 313 312 311 311 311 311 311 311 311 310 308
337 336 337 337 336 336 336 336 336 336 335 334 333 332 331 330 329 328 327 327 327 326 325 323 321 320 318 318 318 318 318 317 315 314 313 312 310 310 310 311 312 312 312 312 312 312 312 312 312 311 311 311 311 311 311 311 311 311 311 311 311 309
337 337 337 337 337 337 337 336 336 336 335 334 332 332 331 330 329 327 327 327 327 326 325 323 321 320 319 319 318 317 317 316 314 313 312 310 309 309 309 309 310 311 311 311 311 311 311 311 310 310 310 310 309 310 310 310 310 310 310 310 310 310
338 337 337 337 337 337 337 336 336 336 334 333 332 332 332 330 328 327 326 327 327 326 324 322 321 320 319 318 317 316 316 315 314 313 312 310 309 309 309 309 310 310 310 311 311 311 311 311 310 309 309 308 309 309 308 309 309 308 309 309 309 310
338 337 337 337 337 337 337 336 335 335 333 333 332 332 332 330 329 328 328 328 327 325 323 321 321 319 318 317 316 316 315 314 313 312 311 310 309 309 309 308 309 309 309 309 310 310 310 310 310 309 309 309 308 308 307 307 308 307 307 307 307 308
338 337 336 337 337 337 336 335 335 334 333 332 332 332 331 330 330 330 329 328 326 324 323 321 320 319 318 317 316 315 314 313 312 312 310 310 309 309 309 308 309 309 308 308 309 309 309 309 309 308 308 308 307 307 307 307 307 306 306 306 306 306
338 337 337 337 337 336 335 335 334 333 332 332 332 332 331 331 330 329 328 327 325 324 323 322 320 318 317 316 315 313 312 312 312 311 310 310 309 309 309 308 308 308 307 307 308 308 308 308 308 308 307 307 306 306 306 306 306 306 306 305 305 305
338 338 337 337 336 336 335 335 335 333 332 331 331 331 331 330 330 328 327 326 325 324 323 321 319 317 316 314 313 313 312 311 311 310 309 309 309 309 308 308 308 307 307 307 307 307 307 307 307 307 306 306 305 305 305 305 305 305 305 305 304 304
Wind_Speed
16 18 17 17 17 15 16 15 13 14 13 13 12 11 9 8 7 7 8 9 10 8 5 5 6 5 5 4 6 7 7 6 6 6 7 7 6 6 6 6 6 6 5 5 5 6 6 6 5 5 5 5 6 4 3 4 5 7 8 8 8 9
16 18 17 18 18 16 16 16 14 14 13 12 11 10 9 8 7 8 8 9 8 7 6 5 5 4 4 3 4 6 6 5 5 5 5 6 6 6 6 5 6 5 6 6 7 7 7 6 4 4 5 5 5 5 4 3 5 6 7 9 9 8
17 18 17 18 19 17 17 17 16 15 14 13 12 10 10 9 9 9 8 7 7 8 7 7 7 6 5 4 4 6 6 5 5 5 5 5 5 6 6 5 5 5 5 5 6 10 11 8 4 1 1 3 3 4 4 5 4 5 9 8 8 7
17 17 17 18 19 18 18 18 17 17 15 14 12 10 11 10 9 8 8 7 7 8 7 8 9 8 6 5 3 5 6 5 5 5 6 6 5 5 5 5 4 3 5 6 8 10 9 8 7 3 1 2 3 3 4 5 5 8 10 7 7 7
17 17 17 17 17 17 18 17 17 16 15 14 12 10 10 9 9 8 8 8 7 7 7 7 7 9 8 6 4 4 4 4 4 5 4 5 6 5 5 7 6 4 6 9 8 6 3 1 2 1 1 2 3 4 3 7 7 9 11 9 9 7
17 17 17 16 15 16 17 16 16 15 13 12 11 10 10 9 8 9 8 7 7 6 5 6 5 5 6 5 4 4 3 2 4 5 3 4 6 4 5 8 7 5 6 6 4 2 1 1 2 2 2 2 3 5 4 9 11 11 12 11 9 7
17 17 17 15 14 15 16 15 14 13 12 11 11 10 9 8 8 9 8 7 6 5 4 5 4 4 4 5 4 3 3 3 3 4 2 3 4 3 3 3 3 3 2 2 2 2 2 1 2 2 2 3 4 5 5 7 10 12 13 12 11 9
17 17 17 15 14 15 14 13 13 12 11 11 10 10 9 9 9 9 8 6 5 4 4 4 3 3 3 3 4 3 4 3 2 2 1 2 2 2 1 1 2 2 3 1 1 2 3 2 2 2 2 4 5 5 6 6 9 10 11 12 13 13
17 17 16 15 14 15 14 13 13 12 11 11 10 10 10 9 8 8 7 6 4 4 3 3 3 2 2 3 3 4 3 3 3 2 1 1 2 1 2 2 1 3 3 0 2 3 2 1 2 2 3 4 5 6 6 6 7 8 9 9 12 15
17 17 16 15 15 14 14 13 13 12 11 11 10 9 10 9 8 7 7 6 5 4 2 3 3 2 2 3 3 4 4 4 3 2 1 0 2 1 1 1 0 3 3 1 3 2 1 1 3 3 4 5 5 6 7 7 7 6 8 9 10 14
17 17 16 15 15 14 14 14 12 12 11 11 11 10 10 9 8 8 7 6 5 4 3 3 3 3 3 3 4 4 4 4 4 3 2 2 1 0 0 1 1 2 2 2 3 2 2 2 3 4 5 6 6 7 7 8 8 7 7 8 9 10
17 17 16 15 15 14 14 14 13 12 11 12 12 11 10 9 8 8 8 7 6 5 4 3 3 4 4 4 5 5 5 4 4 4 3 2 2 1 1 1 1 1 2 3 3 3 3 3 4 5 6 6 7 7 8 8 8 8 7 7 7 7
17 17 16 15 15 14 14 13 13 12 12 13 13 11 10 9 9 8 8 7 6 6 5 4 4 5 5 5 5 5 6 5 5 4 3 3 2 1 1 1 1 1 2 2 2 3 2 3 5 6 7 7 7 8 8 8 8 8 7 7 7 6
17 17 16 15 14 13 13 13 13 12 13 13 12 11 10 9 9 8 7 6 6 6 4 4 4 5 5 5 5 6 5 5 5 4 3 2 2 1 2 1 1 1 1 1 2 2 2 4 6 6 6 7 8 8 8 8 8 8 8 7 7 7
17 17 16 15 14 13 14 14 13 12 13 13 12 11 9 9 9 8 7 7 6 5 5 4 4 5 5 5 5 5 5 5 4 3 3 2 2 2 2 2 2 2 0 0 2 3 3 4 6 7 7 7 7 8 8 8 8 7 7 7 7 8
18 18 17 16 15 14 15 14 13 13 13 12 11 10 9 8 8 7 7 7 6 5 5 5 5 6 5 5 5 5 5 4 4 3 2 1 1 1 1 2 3 3 1 0 2 3 4 5 6 7 7 7 8 7 8 7 7 7 7 7 8 8
19 19 18 17 16 15 15 14 13 13 13 12 10 9 8 8 7 7 6 6 7 6 5 5 5 6 5 5 5 5 5 4 3 2 2 0 0 1 2 2 2 3 1 0 2 3 6 7 7 8 8 8 8 8 8 7 7 7 7 8 7 7
19 19 19 18 17 15 15 14 13 13 12 11 10 8 8 8 7 6 5 5 6 6 5 5 5 5 6 5 5 5 5 3 2 1 1 1 0 1 2 2 1 2 1 1 3 6 7 8 8 9 9 9 9 8 8 7 7 7 7 7 7 7
19 20 19 18 17 15 15 13 12 12 12 11 9 8 8 8 6 5 4 5 6 6 6 6 5 5 6 5 5 5 4 3 1 0 1 2 1 1 1 2 1 2 3 2 4 8 9 10 10 10 10 10 9 9 8 7 7 7 7 6 6 6
20 19 17 18 17 14 14 14 13 13 11 10 8 7 8 7 7 7 5 5 6 5 5 6 6 5 5 5 4 4 3 2 1 1 0 2 2 3 2 2 3 4 4 5 7 10 11 11 12 11 11 10 10 9 9 8 7 6 6 6 6 6
20 20 18 18 17 15 16 15 13 12 10 9 8 8 8 6 6 7 6 5 5 5 6 6 6 5 5 4 4 4 3 1 1 0 0 1 1 2 3 3 4 4 5 6 8 9 11 12 11 10 9 9 9 9 9 8 7 6 6 6 6 5
20 21 19 18 17 18 16 14 13 13 11 9 8 8 8 7 7 7 6 5 5 6 6 6 6 5 4 4 3 3 2 0 0 0 1 2 2 3 3 3 4 4 4 5 7 9 10 9 8 9 8 7 7 7 7 7 7 7 5 5 5 5
20 19 19 18 18 18 16 14 14 14 11 9 9 9 9 8 8 8 8 7 6 6 6 6 5 4 4 3 2 2 1 0 1 1 2 3 3 3 3 3 3 4 4 5 6 6 8 6 3 5 8 6 6 6 5 6 6 6 5 5 4 4
20 18 18 19 18 17 16 15 14 14 11 10 9 10 9 7 7 8 8 7 6 6 5 5 4 3 3 2 2 1 1 1 2 2 3 3 4 3 3 3 3 3 3 5 5 4 4 3 5 2 4 4 6 6 3 6 7 5 5 4 4 4
22 20 17 19 18 18 18 17 16 15 13 11 10 9 9 9 8 9 9 7 6 5 5 5 4 3 3 2 1 2 2 2 3 3 4 4 4 4 4 4 4 3 2 2 5 4 2 1 3 5 4 3 3 3 2 8 8 4 4 4 5 4
21 20 17 20 20 19 20 18 19 20 17 14 12 11 11 12 11 9 9 8 7 6 5 5 4 4 4 3 2 3 4 4 5 5 5 5 5 5 5 5 4 4 5 4 5 5 4 3 3 5 6 5 2 3 3 7 6 3 5 5 5 4
20 19 18 22 21 18 19 17 18 22 19 15 15 14 13 12 12 11 10 8 8 6 4 3 3 4 4 4 4 4 5 6 6 6 6 6 5 5 5 5 5 5 5 5 5 6 6 6 5 6 6 6 5 6 6 3 0 1 4 5 5 4
21 20 20 21 19 17 17 16 15 17 16 15 16 15 13 12 11 11 10 8 7 6 4 3 3 4 4 5 5 5 6 7 7 6 6 6 6 6 6 6 6 6 6 5 5 6 6 6 6 6 5 6 7 7 8 7 5 3 2 3 6 5
22 22 21 21 20 17 17 17 16 15 16 17 16 13 14 15 13 12 11 9 8 6 5 4 4 5 5 5 6 6 7 7 7 7 7 7 8 8 8 8 7 7 7 7 7 6 6 6 6 5 5 5 6 6 6 6 6 5 5 2 3 2
23 23 23 23 22 20 19 18 17 16 18 19 17 14 14 16 15 13 11 10 9 7 5 4 5 6 6 6 7 7 7 7 8 8 8 9 9 9 9 10 9 9 9 8 8 8 7 7 6 6 5 5 5 5 5 5 6 5 5 4 1 1
23 23 25 25 24 22 19 18 18 18 20 21 20 19 18 17 15 14 13 11 9 7 6 5 6 6 6 7 7 8 8 8 9 9 9 9 9 10 10 10 10 10 10 10 9 10 10 9 9 8 8 7 7 6 5 5 6 5 5 4 2 1
24 24 25 25 24 22 18 18 21 21 22 23 20 20 21 20 18 17 16 13 10 9 8 7 7 7 7 7 8 8 8 9 9 9 9 9 10 10 10 10 10 10 10 10 9 9 10 10 9 9 9 8 8 8 7 6 6 6 5 5 4 3
26 25 25 24 23 21 18 20 22 23 23 22 19 19 19 20 18 17 17 15 13 11 10 10 10 9 8 8 9 9 8 9 9 9 10 10 10 10 9 9 9 9 9 9 9 9 9 9 8 8 8 8 8 8 8 7 7 7 6 6 6 5
27 27 27 25 23 21 21 22 22 23 23 21 20 19 18 18 17 15 15 15 14 13 11 11 11 11 10 10 9 9 9 10 10 10 10 11 10 10 10 10 10 10 10 10 10 10 9 9 9 9 8 8 8 8 8 8 7 8 7 7 7 7
28 28 28 26 25 23 23 23 22 22 22 21 21 20 18 18 17 15 15 15 15 14 13 12 12 12 12 11 11 11 11 11 11 11 11 11 11 10 10 10 10 10 10 10 10 10 10 10 10 10 9 9 9 8 8 8 7 8 8 8 7 7
28 28 28 28 27 24 24 24 22 23 23 22 23 22 19 18 17 16 16 16 15 13 13 13 13 13 13 12 12 12 12 11 11 11 11 11 11 10 10 10 10 10 10 10 10 10 10 10 10 10 9 9 9 9 8 8 7 7 7 7 7 7
27 27 27 28 26 25 25 23 22 24 23 22 23 22 19 18 18 18 17 15 15 14 13 14 15 14 13 13 13 13 13 12 12 11 11 11 11 11 10 10 10 10 10 10 9 9 9 9 9 9 9 9 9 8 8 7 7 7 6 7 7 7
Wind_Direction
167 174 168 163 162 160 163 160 162 164 164 169 168 163 153 150 148 148 141 122 113 118 131 99 87 90 84 104 136 148 161 166 170 173 167 165 164 172 185 194 204 211 222 233 247 261 266 272 277 281 292 301 305 300 287 318 349 17 33 45 33 11
170 173 169 166 160 159 163 160 163 166 166 169 165 154 143 142 144 143 133 122 127 150 165 142 132 142 119 112 128 132 142 150 161 170 167 170 168 167 173 180 194 210 224 234 241 242 242 251 266 276 283 293 284 266 278 354 11 14 46 54 33 10
171 173 172 168 160 160 163 162 164 165 164 164 159 148 150 155 157 157 149 149 162 170 165 154 161 163 150 147 126 108 113 118 125 138 145 155 165 170 171 168 182 202 214 219 219 219 215 209 212 231 270 279 267 276 332 45 52 54 66 55 32 17
172 175 174 170 163 162 163 165 165 165 163 161 158 156 165 168 167 167 166 176 178 180 171 158 165 161 159 170 149 119 117 119 118 123 126 130 144 159 168 172 169 185 204 211 219 223 216 197 199 199 184 280 295 316 2 58 58 66 70 54 45 34
173 177 176 172 167 165 165 167 167 166 164 162 161 166 176 170 170 174 174 185 187 187 174 161 169 159 164 183 178 167 153 145 152 152 142 160 175 166 174 185 177 182 215 222 225 231 239 211 210 230 278 303 327 334 40 82 70 74 73 60 58 47
174 179 178 175 170 168 167 168 169 167 164 164 162 168 178 171 174 180 181 192 192 190 173 174 184 156 171 192 180 178 172 174 185 178 187 201 191 188 196 196 194 206 222 221 210 193 220 345 10 333 323 341 356 349 36 76 75 84 78 60 57 51
175 180 179 177 173 170 170 169 167 166 161 162 163 168 177 174 177 181 184 194 191 186 172 179 183 163 181 185 169 161 161 177 192 178 210 214 187 206 213 189 202 229 246 203 188 185 154 87 27 336 337 7 23 11 19 55 73 85 80 64 49 37
176 180 179 175 174 172 171 168 164 165 160 160 165 170 176 175 178 179 181 189 187 185 182 175 171 171 174 160 148 140 144 149 149 144 191 237 198 214 287 342 223 266 320 6 11 3 48 64 34 6 17 26 30 31 27 45 72 81 81 70 45 27
176 179 180 172 175 174 170 168 166 166 160 162 168 171 174 173 178 176 173 180 181 195 197 169 163 170 153 138 130 124 121 115 117 120 126 300 359 21 344 339 230 273 290 148 79 24 15 49 63 34 37 44 37 40 40 43 65 76 86 81 44 27
177 178 178 173 175 172 171 170 167 166 162 164 171 174 173 172 177 171 165 172 174 189 194 164 167 165 146 139 122 116 113 108 112 112 116 79 19 28 323 345 313 286 286 138 100 70 4 53 69 47 38 51 51 51 52 49 55 64 87 96 60 34
178 178 178 176 174 172 173 172 168 165 163 168 173 178 177 173 175 166 160 168 168 174 177 174 175 164 154 140 125 115 113 112 112 111 111 111 89 79 103 39 10 323 351 36 61 58 47 46 62 64 52 54 59 60 61 58 57 53 66 94 79 49
178 179 181 178 174 174 175 172 168 164 166 172 174 179 179 173 173 163 159 165 167 171 174 178 171 161 158 141 132 122 115 114 112 116 116 111 127 139 108 70 44 30 25 36 52 47 54 62 57 63 63 64 67 66 67 64 64 62 57 67 68 58
178 179 182 180 176 177 175 170 168 166 170 173 176 180 176 173 172 159 156 162 166 170 170 173 163 154 151 141 134 125 118 117 113 114 114 109 112 107 96 79 59 56 44 49 75 60 67 85 72 64 63 66 68 67 70 70 68 68 63 56 49 48
178 179 181 180 179 178 174 170 169 170 174 176 178 178 172 172 167 157 157 163 167 168 167 165 156 147 145 140 127 119 117 116 115 114 110 104 103 97 78 59 20 47 41 18 82 81 81 84 78 75 69 66 70 69 69 72 71 69 66 60 51 48
178 179 180 180 181 179 174 171 171 172 175 177 178 173 170 170 166 162 164 166 170 170 165 162 155 149 145 139 126 117 114 109 109 110 101 95 90 79 65 47 17 9 331 138 94 95 90 83 79 81 79 76 78 77 74 72 69 68 65 62 56 51
177 179 179 179 180 177 176 174 172 174 175 177 175 171 170 169 167 166 167 171 174 169 163 160 153 147 141 136 129 117 109 102 98 98 88 99 111 79 57 35 16 360 315 173 132 112 94 96 93 87 84 82 80 77 78 74 68 65 62 62 58 53
177 179 177 179 179 175 177 176 172 174 174 175 173 171 171 167 167 167 172 180 171 161 157 155 147 140 132 127 124 118 115 109 101 97 85 54 8 34 25 10 4 358 345 136 145 126 111 114 107 95 88 83 81 77 76 73 69 67 62 62 59 57
178 179 178 178 176 172 174 174 172 172 171 172 172 171 169 161 162 164 172 177 166 159 155 145 137 130 125 121 119 119 120 116 103 95 117 236 249 27 5 1 350 13 52 161 153 140 130 122 110 99 90 81 80 78 76 72 69 67 66 64 62 60
181 180 177 174 170 168 172 171 170 170 170 173 171 169 164 154 153 155 158 166 161 155 146 134 128 125 122 123 123 120 115 105 93 68 239 252 244 96 24 38 74 88 100 118 134 134 129 119 109 100 92 84 80 78 74 72 71 69 68 66 62 61
183 178 171 171 170 167 170 172 172 171 171 171 164 160 154 149 155 153 150 158 152 141 139 133 126 123 118 117 116 111 106 90 329 305 289 289 331 42 77 97 92 101 114 115 121 129 128 122 112 102 96 88 81 78 79 75 73 72 69 68 62 59
180 173 169 172 171 169 174 177 171 164 166 162 155 153 147 145 153 146 142 155 152 138 135 131 124 120 117 114 107 95 91 58 303 279 122 267 325 53 105 122 104 108 126 134 133 136 138 135 126 117 109 101 92 84 84 82 78 76 71 69 65 61
175 171 173 174 171 172 175 174 164 157 163 163 160 161 149 140 136 132 136 141 143 141 134 129 123 116 105 94 90 86 84 42 282 198 149 159 148 121 125 127 123 124 128 144 148 148 158 164 154 145 143 129 118 103 95 92 83 80 78 75 72 67
173 171 173 175 173 169 168 168 163 162 169 171 167 161 147 136 131 132 137 132 130 135 131 129 119 98 82 69 66 84 109 166 169 166 150 138 131 122 120 116 122 128 132 150 156 159 180 214 258 177 175 172 154 148 133 119 102 91 89 86 81 69
172 170 170 175 172 163 162 162 159 161 164 159 152 145 137 134 135 134 133 126 121 119 113 119 115 99 91 78 80 123 165 170 145 140 138 130 123 115 110 104 96 110 144 160 152 155 188 236 323 314 220 219 178 177 172 146 134 120 115 101 93 80
172 171 170 174 169 162 161 157 154 153 146 143 141 141 143 144 145 142 137 132 127 128 128 124 120 115 111 106 135 154 161 149 124 116 117 118 114 107 102 97 91 89 88 121 130 132 145 136 360 8 356 332 196 198 119 143 146 134 137 112 92 83
170 173 171 171 169 165 164 159 158 157 152 152 154 159 162 158 156 150 141 138 135 134 137 133 120 108 106 117 142 142 136 129 120 110 105 109 108 103 95 88 89 93 88 90 112 117 103 89 49 36 33 30 26 358 65 150 170 141 144 133 109 100
172 172 167 171 172 170 168 163 165 169 168 165 161 166 168 160 155 150 140 137 139 132 127 140 127 106 110 124 133 129 121 117 116 110 103 105 102 98 92 85 89 96 96 96 107 112 107 104 86 59 51 58 59 36 45 85 222 135 160 165 152 144
176 171 166 172 173 170 170 170 172 174 176 173 166 165 162 153 147 149 150 140 134 133 123 121 112 110 120 128 130 119 111 109 108 107 104 101 95 92 92 89 90 90 88 89 94 104 106 107 101 83 69 64 64 56 51 42 12 347 288 178 162 173
178 175 171 173 172 170 172 176 178 175 176 176 169 160 159 163 161 161 166 150 133 134 129 119 116 123 127 127 128 116 109 109 107 106 104 101 98 95 93 90 90 90 88 85 82 91 99 97 94 90 81 72 70 70 65 49 29 8 348 6 143 165
178 178 176 175 172 174 179 179 178 177 177 173 166 159 161 169 168 165 165 154 139 134 134 136 133 133 134 130 125 117 114 112 106 106 104 103 103 100 97 94 92 92 92 89 84 84 89 88 82 75 71 76 81 80 77 59 38 29 16 11 36 49
178 177 176 175 174 178 185 183 179 179 178 172 166 165 164 165 165 163 161 154 148 149 156 160 152 144 141 133 123 119 120 115 109 107 105 104 104 104 104 100 94 90 90 88 87 86 84 84 81 75 70 71 73 68 69 65 41 30 29 15 348 359
178 179 177 175 176 182 185 183 183 182 179 175 171 170 168 165 163 164 161 153 154 165 168 166 163 155 146 138 129 125 122 117 114 112 111 110 108 108 107 104 97 93 92 89 88 88 85 84 83 81 77 74 76 72 65 61 46 35 30 15 353 345
177 178 178 176 178 183 183 183 184 182 181 179 175 174 171 166 165 165 163 159 161 170 173 172 169 160 151 143 135 131 128 123 121 118 117 116 114 114 112 109 105 100 99 94 92 93 90 88 88 89 88 81 78 75 66 58 49 42 32 25 20 3
176 176 178 179 179 183 185 185 181 180 183 182 176 175 172 170 170 166 164 165 168 172 174 175 170 160 154 149 139 136 131 126 125 122 122 121 119 119 117 115 112 106 102 99 97 98 95 94 93 90 91 87 79 74 66 57 51 48 41 35 34 15
176 174 177 180 181 184 187 184 179 181 186 181 174 173 171 172 171 168 167 168 170 173 170 170 168 158 153 148 140 136 132 128 128 127 126 125 123 123 121 120 116 109 106 104 102 102 100 98 95 91 89 87 82 74 65 57 52 48 45 41 36 23
179 175 175 178 181 184 186 183 180 182 183 177 173 173 170 170 170 169 169 167 169 173 169 166 163 156 151 147 141 137 135 133 132 132 131 130 127 126 125 122 119 114 112 111 109 108 105 99 95 92 89 86 83 75 65 59 56 49 46 44 38 31
182 177 174 177 179 182 183 181 177 177 176 173 174 173 168 167 169 169 167 164 164 167 169 166 159 155 152 147 142 140 138 136 136 136 135 133 131 129 128 125 123 121 120 120 117 112 109 104 100 97 93 88 85 80 70 63 59 53 47 45 41 37